Regional Weather Roundup
Issued by NWS

Home | Current Version | Previous Version | Text Only | Print | Product List | Glossary On
Versions: 1 2 3 4 5 6 7 8 9 10 11 12 13 14 15 16 17 18 19 20 21 22 23 24 25 26 27
000
ASUS42 KTBW 200616
RWRFL
FLORIDA REGIONAL WEATHER ROUNDUP
NATIONAL WEATHER SERVICE TAMPA BAY RUSKIN FL
200 AM EDT SUN JUN 20 2021

NOTE: "FAIR" INDICATES FEW OR NO CLOUDS BELOW 12,000 FEET WITH NO
SIGNIFICANT WEATHER AND/OR OBSTRUCTIONS TO VISIBILITY.

FLZ001>010-012>015-112-114-115-200700-
PANHANDLE FLORIDA

CITY           SKY/WX    TMP DP  RH WIND       PRES   REMARKS
PENSACOLA      MOCLDY    81  77  88 SW16G24   29.89F
PENSACOLA NAS  CLOUDY    81  76  84 SW14G20   29.90S
CRESTVIEW      PTCLDY    80  74  81 SW10G21   29.90S
DUKE FIELD     LGT RAIN  79  75  89 SW16      29.88F
VALPARAISO     CLOUDY    80  76  87 SW15G22   29.89F
MARY ESTHER    MOCLDY    80  76  89 SW12G21   29.89F
TRI COUNTY     FAIR      79  74  84 SW9       29.90
PANAMA CITY    CLOUDY    80  77  90 S13       29.91F
TYNDALL AFB    LGT RAIN  79  74  86 SW18G26   29.93S
APALACHICOLA   CLOUDY    79  78  97 SW12      29.96F

STATION/POSITION SKY/WX   TEMP    WIND        PRES    WAVE   SWELL
                          AIR SEA DIR/SP/G            HT/PER HT/PER
                          (F)     (DEG/KT/KT) (MB)    (FT/S) (FT/S)
30.1N   87.6W              81     230/ 17/ 23 1013.6F   7/ 8
29.2N   88.2W              81 81  210/ 17/ 21 1013.6F   7/ 7   2/14
28.8N   86.0W              83     210/ 21/ 25 1015.2F   6/ 7
PANAMA CITY BEAC           81 81  210/ 20/ 25 1013.8F
TOWER C                    81     210/ 19/ 23 1015.0F
28.5N   84.5W              81 81  200/ 14/ 16 1014.8F   5/ 7   3/ 7

$$
FLZ011-016>038-118-127-128-134-139-239-200700-
NORTH FLORIDA

CITY           SKY/WX    TMP DP  RH WIND       PRES   REMARKS
MARIANNA       PTCLDY    77  75  93 S10       29.89F
TALLAHASSEE    MOCLDY    76  74  93 S7        29.95F
LIVE OAK       CLOUDY    81  75  83 S5        29.98F
CROSS CITY     CLOUDY    81  72  73 S8        30.00F
LAKE CITY      MOCLDY    77  73  88 S6        30.00F
GAINESVILLE    CLOUDY    77  75  93 S5        30.04S
WILLISTON      CLOUDY    77  76  96 CALM      30.02S
PALATKA        CLOUDY    75  70  83 SW5       30.02R
MAYPORT NAS    CLOUDY    78  75  90 S10       30.00F
JACKSONVILLE   CLOUDY    77  76  96 S6        29.99S
JAX NAS        CLOUDY    80  75  84 SW9       30.01S
JAX CECIL      CLOUDY    75  75 100 CALM      30.01S
FERNANDINA BEA FAIR      77 N/A N/A S7        30.00S
ST AUGUSTINE   CLOUDY    77  75  93 S5        30.02F
PALM COAST     FAIR      77  76  96 S3        30.02S

STATION/POSITION SKY/WX   TEMP    WIND        PRES    WAVE   SWELL
                          AIR SEA DIR/SP/G            HT/PER HT/PER
                          (F)     (DEG/KT/KT) (MB)    (FT/S) (FT/S)
SHELL POINT      NOT AVBL
KEATON BEACH               83     210/ 15/ 17 1015.6F
CEDAR KEY                  83     240/ 11/ 14 1016.4F
FERNANDINA                 83 83  160/  5/  8 1016.0F
30.7N   81.3W              80 80                N/A     4/ 5
MAYPORT                    78 83  170/  3/  6 1016.4F
31.4N   80.9W              80 80  190/ 16/ 19 1015.0F   4/ 4   2/ 8
ST AUGUSTINE               79 82  200/  6/  8 1016.5F

$$
FLZ040-043>046-052-053-057-058-063-144-200700-
INTERIOR CENTRAL FLORIDA

CITY           SKY/WX    TMP DP  RH WIND       PRES   REMARKS
OCALA          CLOUDY    78  76  93 S5        30.03S
LEESBURG       CLOUDY    81  73  76 S6        30.03S
SANFORD        MOCLDY    82  74  76 S5        30.02F
ORLANDO EXEC   MOCLDY    83  74  74 S8        30.03F
ORLANDO INTL   MOCLDY    80  74  81 S9        30.03F
KISSIMMEE      MOCLDY    81  76  84 S7        30.05F
WINTER HAVEN   CLOUDY    82  74  76 S5        30.05S
LAKELAND       CLOUDY    79  73  83 S5        30.04F
BARTOW         CLOUDY    79  75  89 SE6       30.04F
SEBRING        MOCLDY    80  76  88 S7        30.05F
OKEECHOBEE       N/A     79  75  89 S6        30.04F

$$
FLZ041-047-054-059-064-141-147-200700-
EAST CENTRAL FLORIDA

CITY           SKY/WX    TMP DP  RH WIND       PRES   REMARKS
DAYTONA BEACH  CLOUDY    80  74  81 S6        30.02F
DELAND         MOCLDY    82  76  82 S5        30.03F
JFK SPACE CTR  MOCLDY    79  74  85 S3        30.02F
CAPE CANAVERAL MOCLDY    78  76  91 S10       30.03F
PATRICK AFB    MOCLDY    80  72  75 S10       30.03S
MELBOURNE      MOCLDY    80  75  84 S9        30.03F
VERO BEACH     MOCLDY    80  77  90 S9        30.05F
FT PIERCE      MOCLDY    80  75  84 S5        30.04F
STUART         MOCLDY    79  73  83 S3        30.06F

STATION/POSITION SKY/WX   TEMP    WIND        PRES    WAVE   SWELL
                          AIR SEA DIR/SP/G            HT/PER HT/PER
                          (F)     (DEG/KT/KT) (MB)    (FT/S) (FT/S)
28.5N   80.2W                                 1016.5F   4/ 4   2/ 8
28.9N   78.5W              81     180/ 14/ 16 1018.7F   3/ 8   2/ 8
TRIDENT PIER               79 81  170/  9/ 13 1018.6R
28.4N   80.5W                 79                N/A     3/ 4
27.5N   80.2W                 78                N/A     2/ 9

$$
FLZ050-056-061-142-242-148-248-149-249-151-251-155-255-
160-260-200700-
WEST CENTRAL FLORIDA

CITY           SKY/WX    TMP DP  RH WIND       PRES   REMARKS
CRYSTAL RIVER  RAIN      79  75  89 CALM      30.02S
INVERNESS      MOCLDY    77  77 100 MISG      30.03S
BROOKSVILLE    CLOUDY    78  74  87 S3        30.04R
CLEARWATER AIR FAIR      81  73  78 S3        30.02S
ST PETE CLEARW CLOUDY    82  77  84 S6        30.03R
TAMPA INTL     CLOUDY    83  76  79 S8        30.03S
TAMPA EXEC       N/A     81  77  89 CALM      30.04S
PLANT CITY     CLOUDY    81  75  83 S5        30.06S
MACDILL AFB    CLOUDY    81  75  81 S6        30.01R
PETER O KNIGHT CLOUDY    82  77  83 S6        30.04S
ST PETERSBURG  CLOUDY    83  76  79 SW10      30.01S
SARASOTA       MOCLDY    83  77  82 S9        30.02S
VENICE         FAIR      84  79  84 S10       30.04S HAZE    HX  96

STATION/POSITION SKY/WX   TEMP    WIND        PRES    WAVE   SWELL
                          AIR SEA DIR/SP/G            HT/PER HT/PER
                          (F)     (DEG/KT/KT) (MB)    (FT/S) (FT/S)
27.3N   84.3W                 81                N/A     4/ 7
CLEARWATER BEACH           83 87  190/ 14/ 15 1016.9S
MIDDLE TAMPA BAY           82     210/ 10/ 12   N/A
VENICE                     83 85  180/ 15/ 17 1016.7F

$$
FLZ066-069-070-075>078-162-262-165-265-200700-
SOUTHWEST FLORIDA AND KEYS

CITY           SKY/WX    TMP DP  RH WIND       PRES   REMARKS
PUNTA GORDA    MOCLDY    79  77  94 CALM      30.05S
FT MYERS       PTCLDY    81  78  91 CALM      30.02F
SOUTHWEST INTL PTCLDY    79  74  84 SE6       30.03F
NAPLES         PTCLDY    81  78  91 SE5       30.03F
IMMOKALEE      FAIR      79  75  89 SE3       30.04F
MARATHON       PTCLDY   N/A N/A N/A SE9       30.04F
KEY WEST NAS   MOCLDY   N/A N/A N/A SE10      30.05S
KEY WEST INTL  MOCLDY    83  79  88 SE12      30.05F

STATION/POSITION SKY/WX   TEMP    WIND        PRES    WAVE   SWELL
                          AIR SEA DIR/SP/G            HT/PER HT/PER
                          (F)     (DEG/KT/KT) (MB)    (FT/S) (FT/S)
NAPLES                     86 85  180/  3/  5 1018.0F
26.0N   85.6W                     180/ 10/ 12 1015.3F   3/ 6   3/ 6
DRY TORTUGAS     NOT AVBL
SAND KEY                   83     140/ 12/ 14 1017.5
SOMBRERO KEY                      140/  9/ 11 1016.5F
LONG KEY                                      1017.0F

$$
FLZ067-068-071>074-168-172>174-200700-
SOUTHEAST FLORIDA

CITY           SKY/WX    TMP DP  RH WIND       PRES   REMARKS
W PALM BEACH   MOCLDY    82  78  88 SE8       30.05F
FT LAUDER-EXEC MOCLDY    83  79  88 SE8       30.04F
FT LAUDERDALE  MOCLDY    83  80  91 SE7       30.03F HX  95
POMPANO BEACH  PTCLDY    83  77  82 SE7       30.04F
PEMBROKE PINES MOCLDY    82  77  84 SE3       30.05F
OPA LOCKA      MOCLDY    82  77  84 SE5       30.05F
MIAMI          MOCLDY    83  79  88 SE7       30.04F
WEST KENDALL   PTCLDY    83  77  82 SE3       30.04F
HOMESTEAD      MOCLDY    80  77  91 CALM      30.03F

STATION/POSITION SKY/WX   TEMP    WIND        PRES    WAVE   SWELL
                          AIR SEA DIR/SP/G            HT/PER HT/PER
                          (F)     (DEG/KT/KT) (MB)    (FT/S) (FT/S)
VIRGINIA KEY               85 87   90/  5/  7 1017.9F
LAKE WORTH                 83 83  160/ 10/ 11 1017.2F
FOWEY ROCKS                83 82  150/  8/  8 1017.6F
SETTLEMENT POINT           80     130/  6/  7 1017.9F

$$




USA.gov is the U.S. government's official web portal to all federal, state and local government web resources and services.